Flag for Honduras Weather past 2 weeks in La Ceiba, Honduras

Now
86 °F

Scattered clouds.


Feels Like: 97 °F
Forecast: 74 / 89 °F
Wind: 9 mph from Northeast

Location: La Ceiba Airport

Current Time: Aug 22, 2014 at 6:31:35 PM

Latest Report: Aug 22, 2014 at 5:00 PM


Visibility: N/A

Pressure: 29.86 "Hg

Humidity: 75%

Dew point: 77 °F

Location of La CeibaLocation

Historic Weather in La Ceiba — Graph

°F

La Ceiba temperature yesterday

Maximum temperature yesterday: 90 °F (at 2:00 PM)
Minimum temperature yesterday: 72 °F (at 5:00 AM)
Average temperature yesterday: 80 °F

Past Weeks' High & Low Weather Summary

 TemperatureHumidityPressure
High91 °F (Aug 14, 1:00 PM)100% (Aug 9, 5:00 AM)29.98 "Hg (Aug 9, 5:00 AM)
Low70 °F (Aug 22, 5:00 AM)55% (Aug 21, 8:00 AM)29.83 "Hg (Aug 18, 4:00 PM)
Average81 °F82%29.93 "Hg
* Reported Aug 7 5:00 PM — Aug 22 5:00 PM, La Ceiba, Weather by CustomWeather, © 2014

Note: Actual official high and low records may vary slightly from our data, if they occured in-between our weather recording intervals... More about our weather records

Advertising

La Ceiba weather history for previous 24 hours

 ConditionsComfort  
Time TempWeatherWind HumidityBarometerVisibility
5:00 PM
Aug 22
86 °FScattered clouds.9 mph75%29.86 "HgN/A
4:00 PM88 °FScattered clouds.9 mph70%29.86 "HgN/A
3:00 PM90 °FScattered clouds.13 mph67%29.89 "HgN/A
2:00 PM90 °FScattered clouds.12 mph71%29.89 "HgN/A
1:00 PM90 °FScattered clouds.12 mph67%29.89 "HgN/A
12:00 PM88 °FScattered clouds.9 mph66%29.92 "HgN/A
11:00 AM86 °FScattered clouds.5 mph70%29.95 "HgN/A
10:00 AM88 °FPassing clouds.9 mph66%29.98 "HgN/A
9:00 AM88 °FPassing clouds.3 mph62%29.98 "HgN/A
8:00 AM82 °FPassing clouds.No wind79%29.98 "HgN/A
7:00 AM73 °FPassing clouds.No wind83%29.95 "HgN/A
6:00 AM70 °FScattered clouds.2 mph94%29.95 "HgN/A
5:00 AM70 °FPassing clouds.No wind94%29.95 "HgN/A
4:00 AM72 °FPassing clouds.No wind94%29.92 "HgN/A
3:00 AM72 °FPassing clouds.No wind94%29.92 "HgN/A
1:00 AM73 °FPassing clouds.2 mph89%29.95 "HgN/A
12:00 AM73 °FPassing clouds.No wind89%29.98 "HgN/A
11:00 PM
Aug 21
75 °FPassing clouds.2 mph89%29.98 "HgN/A
10:00 PM75 °FPassing clouds.2 mph89%29.98 "HgN/A
9:00 PM75 °FPassing clouds.3 mph83%29.98 "HgN/A
8:00 PM77 °FPassing clouds.3 mph83%29.95 "HgN/A
7:00 PM79 °FPassing clouds.6 mph79%29.92 "HgN/A
6:00 PM82 °FScattered clouds.13 mph74%29.92 "HgN/A
Weather by CustomWeather, © 2014

See weather overviewHow to use our weather pages